Terminal Aerodrome Forecast
Issued by NWS

Home | Current Version | Previous Version | Text Only | Print | Product List | Glossary On
Versions: 1 2 3 4 5 6 7 8 9 10 11 12 13 14 15 16 17 18 19 20 21 22 23 24 25 26 27 28 29 30 31 32 33 34 35 36 37 38 39 40 41 42 43 44 45 46 47 48
000
FTUS45 KVEF 030525
TAFLAS
TAF
KLAS 030525Z 0306/0406 17012G19KT P6SM FEW250
     FM030800 19011KT P6SM FEW250
     FM031500 16009KT P6SM FEW250
     FM031800 17014G20KT P6SM FEW250
     FM032000 20018G27KT P6SM FEW250
     FM040500 21012G18KT P6SM SKC=

USA.gov is the U.S. government's official web portal to all federal, state and local government web resources and services.